{"data":{"norad_id":87051,"intl_designator":"","name":"UNKNOWN","alt_names":[],"object_type":"UNKNOWN","status":"UNKNOWN","operator":null,"country":null,"launch_date":null,"launch_site_code":null,"launch_vehicle":null,"mission":null,"orbit_class":"UNKNOWN","rcs_meters":null,"size_class":null,"mass_kg":null,"dimensions":null,"purposes":[],"wikipedia_slug":null,"has_3d_model":false,"image_url":null,"decayed_at":null,"tle_current":{"epoch":"2026-09-17T10:26:27.584736Z","epoch_age_seconds":279361,"freshness":"STALE","line1":"1 87051U          26260.43504149  .00000817  00000+0  30278-3 0  9995","line2":"2 87051  65.7277 309.3843 0713591  13.5498 348.3641 13.46894501626108","mean_motion":13.46894501,"eccentricity":0.0713591,"inclination_deg":65.7277,"raan_deg":309.3843,"arg_perigee_deg":13.5498,"mean_anomaly_deg":348.3641,"bstar":0.00030278,"rev_number":62610,"period_min":106.91260517664,"perigee_km":551.23582838637,"apogee_km":1616.1766652548,"semimajor_km":7461.8432468206,"source":"CELESTRAK","updated_at":"2026-09-20T09:00:32.449523Z"}}}